When you browse on this site, cookies collect data to enhance your experience and personalize the content and advertising you see.
Visit our Privacy Policy to learn more. By continuing to use the site, you agree to this use of cookies and data.
EN

Hourly Weather Abertridwr

Today, 9 July, Thursday

Time Temperature Precipitation Wind Pressure Humidity
00:00 +14°C° 0 mm 7 mps 747 mmHg 97%
01:00 +15°C° 0.6 mm 7 mps 747 mmHg 97%
02:00 +15°C° 0.6 mm 7 mps 746 mmHg 97%
03:00 +15°C° 0.6 mm 7 mps 746 mmHg 97%
04:00 +15°C° 0.4 mm 7 mps 746 mmHg 97%
05:00 +15°C° 0.4 mm 7 mps 746 mmHg 97%
06:00 +15°C° 0.4 mm 7 mps 746 mmHg 97%
07:00 +15°C° 0.1 mm 6 mps 746 mmHg 97%
08:00 +15°C° 0.1 mm 6 mps 746 mmHg 96%
09:00 +16°C° 0.1 mm 5 mps 746 mmHg 96%
10:00 +16°C° 0 mm 5 mps 747 mmHg 94%
11:00 +16°C° 0 mm 5 mps 747 mmHg 93%
12:00 +18°C° 0 mm 4 mps 747 mmHg 91%
13:00 +18°C° 0.1 mm 4 mps 747 mmHg 92%
14:00 +17°C° 0.1 mm 4 mps 747 mmHg 92%
15:00 +17°C° 0.1 mm 3 mps 748 mmHg 93%
16:00 +17°C° 0.2 mm 3 mps 747 mmHg 93%
17:00 +16°C° 0.2 mm 3 mps 747 mmHg 93%
18:00 +16°C° 0.2 mm 3 mps 747 mmHg 93%
19:00 +14°C° 0.1 mm 3 mps 748 mmHg 93%
20:00 +14°C° 0.1 mm 3 mps 748 mmHg 94%
21:00 +13°C° 0.1 mm 3 mps 749 mmHg 95%
22:00 +12°C° 0 mm 3 mps 749 mmHg 95%
23:00 +12°C° 0 mm 3 mps 749 mmHg 95%

Tomorrow, 10 July, Friday

Time Temperature Precipitation Wind Pressure Humidity
00:00 +12°C° 0 mm 2 mps 749 mmHg 94%
01:00 +12°C° 0 mm 2 mps 750 mmHg 94%
02:00 +10°C° 0 mm 2 mps 750 mmHg 94%
03:00 +9°C° 0 mm 2 mps 750 mmHg 93%
04:00 +9°C° 0 mm 3 mps 750 mmHg 92%
05:00 +10°C° 0 mm 3 mps 751 mmHg 90%
06:00 +10°C° 0 mm 3 mps 751 mmHg 88%
07:00 +11°C° 0 mm 4 mps 752 mmHg 82%
08:00 +12°C° 0 mm 5 mps 752 mmHg 75%
09:00 +14°C° 0 mm 6 mps 752 mmHg 69%
10:00 +14°C° 0.1 mm 6 mps 753 mmHg 68%
11:00 +15°C° 0.1 mm 6 mps 753 mmHg 67%
12:00 +15°C° 0.1 mm 6 mps 753 mmHg 66%
13:00 +16°C° 0.1 mm 6 mps 753 mmHg 66%
14:00 +16°C° 0.1 mm 7 mps 753 mmHg 66%
15:00 +16°C° 0.1 mm 7 mps 754 mmHg 66%
16:00 +15°C° 0 mm 7 mps 754 mmHg 68%
17:00 +15°C° 0 mm 6 mps 754 mmHg 71%
18:00 +14°C° 0 mm 6 mps 754 mmHg 73%
19:00 +13°C° 0 mm 5 mps 754 mmHg 78%
20:00 +11°C° 0 mm 4 mps 755 mmHg 83%
21:00 +10°C° 0 mm 3 mps 756 mmHg 88%
22:00 +9°C° 0 mm 3 mps 756 mmHg 89%
23:00 +9°C° 0 mm 3 mps 756 mmHg 90%

Day after tomorrow, 11 July, Saturday

Time Temperature Precipitation Wind Pressure Humidity
00:00 +9°C° 0 mm 2 mps 756 mmHg 91%
01:00 +9°C° 0 mm 2 mps 756 mmHg 91%
02:00 +8°C° 0 mm 2 mps 757 mmHg 92%
03:00 +8°C° 0 mm 2 mps 757 mmHg 93%
04:00 +9°C° 0 mm 2 mps 757 mmHg 92%
05:00 +10°C° 0 mm 2 mps 757 mmHg 90%
06:00 +12°C° 0 mm 1 mps 757 mmHg 89%
07:00 +13°C° 0 mm 2 mps 758 mmHg 83%
08:00 +14°C° 0 mm 2 mps 758 mmHg 76%
09:00 +16°C° 0 mm 3 mps 759 mmHg 69%
10:00 +17°C° 0 mm 3 mps 759 mmHg 67%
11:00 +17°C° 0 mm 3 mps 759 mmHg 65%
12:00 +18°C° 0 mm 3 mps 759 mmHg 62%
13:00 +18°C° 0 mm 3 mps 759 mmHg 62%
14:00 +19°C° 0 mm 3 mps 759 mmHg 62%
15:00 +19°C° 0 mm 3 mps 759 mmHg 62%
16:00 +18°C° 0 mm 3 mps 759 mmHg 66%
17:00 +18°C° 0 mm 3 mps 759 mmHg 69%
18:00 +17°C° 0 mm 3 mps 759 mmHg 73%
19:00 +16°C° 0 mm 3 mps 759 mmHg 77%
20:00 +13°C° 0 mm 3 mps 759 mmHg 82%
21:00 +12°C° 0 mm 2 mps 759 mmHg 87%
22:00 +12°C° 0 mm 2 mps 759 mmHg 87%
23:00 +10°C° 0 mm 2 mps 759 mmHg 87%

12 July, Sunday

Time Temperature Precipitation Wind Pressure Humidity
00:00 +11°C° 0 mm 1 mps 759 mmHg 87%
01:00 +10°C° 0 mm 1 mps 759 mmHg 87%
02:00 +10°C° 0 mm 1 mps 759 mmHg 88%
03:00 +10°C° 0 mm 1 mps 759 mmHg 88%
04:00 +11°C° 0 mm 1 mps 759 mmHg 87%
05:00 +12°C° 0 mm 1 mps 759 mmHg 85%
06:00 +12°C° 0 mm 1 mps 759 mmHg 83%
07:00 +14°C° 0 mm 1 mps 759 mmHg 79%
08:00 +15°C° 0 mm 1 mps 759 mmHg 75%
09:00 +18°C° 0 mm 1 mps 760 mmHg 71%
10:00 +18°C° 0 mm 2 mps 760 mmHg 68%
11:00 +18°C° 0 mm 2 mps 760 mmHg 65%
12:00 +19°C° 0 mm 2 mps 760 mmHg 61%
13:00 +19°C° 0 mm 2 mps 759 mmHg 61%
14:00 +20°C° 0 mm 2 mps 759 mmHg 61%
15:00 +20°C° 0 mm 2 mps 759 mmHg 60%
16:00 +19°C° 0 mm 2 mps 759 mmHg 63%
17:00 +19°C° 0 mm 2 mps 759 mmHg 67%
18:00 +19°C° 0 mm 2 mps 759 mmHg 70%
19:00 +17°C° 0 mm 2 mps 759 mmHg 74%
20:00 +15°C° 0 mm 1 mps 759 mmHg 78%
21:00 +13°C° 0 mm 1 mps 759 mmHg 82%
22:00 +13°C° 0 mm 1 mps 759 mmHg 82%
23:00 +12°C° 0 mm 1 mps 759 mmHg 83%

13 July, Monday

Time Temperature Precipitation Wind Pressure Humidity
00:00 +12°C° 0 mm 1 mps 758 mmHg 84%
01:00 +11°C° 0 mm 1 mps 758 mmHg 83%
02:00 +11°C° 0 mm 1 mps 758 mmHg 81%
03:00 +11°C° 0 mm 1 mps 758 mmHg 80%
04:00 +12°C° 0 mm 1 mps 758 mmHg 78%
05:00 +13°C° 0 mm 1 mps 757 mmHg 77%
06:00 +14°C° 0 mm 1 mps 757 mmHg 75%
07:00 +15°C° 0 mm 1 mps 757 mmHg 69%
08:00 +16°C° 0 mm 1 mps 757 mmHg 63%
09:00 +19°C° 0 mm 1 mps 757 mmHg 57%
10:00 +19°C° 0 mm 1 mps 757 mmHg 56%
11:00 +19°C° 0 mm 2 mps 757 mmHg 55%
12:00 +19°C° 0 mm 2 mps 756 mmHg 54%
13:00 +19°C° 0 mm 3 mps 756 mmHg 56%
14:00 +19°C° 0 mm 3 mps 756 mmHg 57%
15:00 +19°C° 0 mm 3 mps 755 mmHg 59%
16:00 +19°C° 0 mm 3 mps 755 mmHg 64%
17:00 +18°C° 0 mm 3 mps 755 mmHg 68%
18:00 +17°C° 0 mm 3 mps 755 mmHg 73%
19:00 +16°C° 0 mm 3 mps 755 mmHg 72%
20:00 +15°C° 0 mm 2 mps 755 mmHg 71%
21:00 +15°C° 0 mm 2 mps 754 mmHg 70%
22:00 +14°C° 0.1 mm 2 mps 754 mmHg 75%
23:00 +14°C° 0.1 mm 2 mps 754 mmHg 79%

14 July, Tuesday

Time Temperature Precipitation Wind Pressure Humidity
00:00 +13°C° 0.1 mm 2 mps 754 mmHg 84%
01:00 +13°C° 0.2 mm 2 mps 754 mmHg 87%
02:00 +13°C° 0.2 mm 1 mps 753 mmHg 90%
03:00 +12°C° 0.2 mm 1 mps 753 mmHg 93%
04:00 +12°C° 0.1 mm 1 mps 753 mmHg 93%
05:00 +11°C° 0.1 mm 0 mps 753 mmHg 94%
06:00 +11°C° 0.1 mm 0 mps 753 mmHg 94%
07:00 +12°C° 0 mm 0 mps 753 mmHg 93%
08:00 +13°C° 0 mm 1 mps 754 mmHg 92%
09:00 +13°C° 0 mm 1 mps 754 mmHg 90%
10:00 +14°C° 0 mm 1 mps 754 mmHg 88%
11:00 +15°C° 0 mm 1 mps 754 mmHg 85%
12:00 +16°C° 0 mm 1 mps 754 mmHg 83%
13:00 +16°C° 0.2 mm 1 mps 754 mmHg 82%
14:00 +17°C° 0.2 mm 2 mps 753 mmHg 82%
15:00 +17°C° 0.2 mm 2 mps 753 mmHg 82%
16:00 +17°C° 0.1 mm 3 mps 753 mmHg 82%
17:00 +17°C° 0.1 mm 3 mps 753 mmHg 82%
18:00 +17°C° 0.1 mm 4 mps 753 mmHg 82%
19:00 +14°C° 0 mm 3 mps 753 mmHg 84%
20:00 +12°C° 0 mm 3 mps 753 mmHg 86%
21:00 +10°C° 0 mm 3 mps 753 mmHg 88%
22:00 +10°C° 0 mm 3 mps 753 mmHg 88%
23:00 +9°C° 0 mm 3 mps 753 mmHg 89%
Show more